CZ-6A DEB, 56683

Orbit data source: Space-Track

CZ-6A DEB, 56683 is space debris in SSO originally from a launch on Fri, 11 Nov 2022 UTC launched from the Taiyaun Space Center, China (TSC). Debris objects in space refer to the collection of defunct objects orbiting the Earth. Examples of debris include non-operational satellites, rocket bodies, and fragments generated from explosions, collisions, or faulty payload assembly.

Loading next visibility...
Identifier
56683, 2022-151AHK
Orbit
SSO
Country
Flag of CNCN / PRC
Related business
Manufacturer
SAST
Mission
Spacecraft
Bus & Motor
Unknown
Mass
Unknown
Launch date (UTC)
2022-11-11 (3 years ago)
Launch vehicle
Unknown
Launch site
Taiyaun Space Center, China (TSC)
Object type
Payload
Rocket body
Debris
Shape & HBR
Unknown shape, 0.1 m
Radar Cross Section
Small (<0.1 m²)

Expand to show TLE details & history
Last TLE update: 2 days ago

TLE from 2 days ago
0 CZ-6A DEB
1 56683U 22151AHK 25348.48473443  .00000245  00000-0  16214-3 0  9996
2 56683  98.8330 346.1016 0045026 123.0409 237.5099 14.09812936133935
Epoch: 2025-12-14T11:38Z
TLE epoch observation values (Epoch: 2025-12-14T11:38:01.054Z)
Latitude
-0.00001°
Longitude
88.20023°
Altitude
880.522 km
Speed
7.403 km/s
True Right ascension
23h 04m 24s
True Declination
0° 00' 00"
Sunlit
Object was in daylight at epoch
Visualization orbit readout
Latitude
Unknown
Longitude
Unknown
Altitude
Unknown
Speed
Unknown
Apparent Right ascension
Unknown
Apparent Declination
Unknown
Sunlit
N/A
Visualization observer readout
Local Sidereal Time
06:12:54
Azimuth
Unknown
Elevation
Unknown
Doppler factor
Unknown
Orbital elements
Apogee altitude
889.768 km
Perigee altitude
824.612 km
Semi-major axis
7,235.327 km
Eccentricity
0.0045
Inclination
98.833°
RAAN
346.1016°
Arg. of periapsis
123.0409°
True anomaly
237.07601°
Mean anomaly
237.5099°
Eccentric anomaly
237.29282°
Mean motion
3.5266 °/min
Orbital period
102.08 mins
BSTAR
0.00016214
Loading maneuver chart data...
Computing Atmospheric mass density...
Loading historical data...
Loading historical data...
Loading historical data...
Loading historical data...
Loading historical data...
Loading historical data...
Loading historical data...

Documentation

Showing up to 5 results
|